Connaught Arpt, Ireland

9:21 AM GMT on February 22, 2017 (GMT +0000)
Connaught

Weather History for EIKN - March, 2014

Change the Weather History Date:

Thursday, March 20, 2014

  Actual Average Record
Temperature  
Mean Temperature 42 °F -  
Max Temperature 46 °F - - ()
Min Temperature 37 °F - - ()
Degree Days  
Heating Degree Days 24    
Moisture  
Dew Point 38 °F    
Average Humidity 84    
Maximum Humidity 100    
Minimum Humidity 58    
Precipitation  
Precipitation 0.35 in - - ()
Sea Level Pressure  
Sea Level Pressure 29.39 in    
Wind  
Wind Speed 18 mph ()    
Max Wind Speed 31 mph    
Max Gust Speed 41 mph    
Visibility 7.6 miles    
Events Rain , Snow , Hail    
T = Trace of Precipitation, MM = Missing Value Source: Averaged Metar Reports

Daily Weather History Graph

Daily Weather History Graph

Search for Another Location

Airport or City:

Trip Planner

Search our weather history database for the weather conditions in past years. The results will help you decide how hot, cold, wet, or windy it might be!

Date:

Astronomy

Mar. 20, 2014 Rise Set
Actual Time 6:38 AM GMT 6:48 PM GMT
Civil Twilight 6:02 AM GMT 7:23 PM GMT
Nautical Twilight 5:21 AM GMT 8:05 PM GMT
Astronomical Twilight 4:37 AM GMT 8:49 PM GMT
Moon 11:32 PM GMT (3/20) 8:01 AM GMT (3/20)
Length of Visible Light 13h 20m
Length of Day
12h 10m
Waning Gibbous, 85% of the Moon is Illuminated
Mar 20
Waning Gibbous
Mar 24
Last Quarter
Mar 30
New
Apr 7
First Quarter
Apr 15
Full

Hourly Weather History & Observations

Time (GMT) Temp. Windchill Dew Point Humidity Pressure Visibility Wind Dir Wind Speed Gust Speed Precip Events Conditions
12:00 AM 47 °F - 45 °F 92% 29.54 in - SSW 26.8 mph - -  
1:00 AM 46 °F - 46 °F 99% 29.49 in - South 26.8 mph - -  
2:00 AM 46 °F - 46 °F 99% 29.46 in - South 24.6 mph - -  
3:00 AM 48 °F - 48 °F 98% 29.42 in - SSW 31.3 mph - -  
4:00 AM 48 °F - 48 °F 99% 29.37 in - SSW 31.3 mph - -  
6:00 AM 41 °F - 40 °F 95% 29.40 in 12 mi SW 15.7 mph - - Rain Light Rain
7:00 AM 41 °F - 40 °F 96% 29.37 in 11 mi South 8.9 mph - - Rain Light Rain
8:00 AM 41 °F - 41 °F 98% 29.37 in 9 mi SSW 11.2 mph - - Rain Light Rain
8:00 AM 41.0 °F 34.3 °F 41.0 °F 100% 29.33 in 6.2 mi SSW 11.5 mph - N/A Rain Light Rain
8:30 AM 41.0 °F 33.9 °F 41.0 °F 100% 29.33 in 5.0 mi SSW 12.7 mph - N/A Rain Light Rain
9:00 AM 41 °F - 41 °F 100% 29.36 in 4 mi SSW 11.2 mph - - Rain Light Rain
9:00 AM 41.0 °F 34.3 °F 41.0 °F 100% 29.33 in 4.3 mi SSW 11.5 mph - N/A Rain Light Rain
9:30 AM 39.2 °F 29.6 °F 37.4 °F 93% 29.33 in 6.2 mi SW 19.6 mph - N/A Rain Light Rain
10:00 AM 39 °F - 37 °F 90% 29.35 in 12 mi SSW 15.7 mph - - Rain Light Rain
10:00 AM 39.2 °F 30.8 °F 37.4 °F 93% 29.33 in 6.2 mi SSW 15.0 mph - N/A   Overcast
10:30 AM 39.2 °F 32.0 °F 37.4 °F 93% 29.30 in 6.2 mi SSW 11.5 mph - N/A   Mostly Cloudy
11:00 AM 40 °F - 38 °F 91% 29.36 in 7 mi WSW 13.4 mph - - Rain Light Rain
11:00 AM 41.0 °F 33.5 °F 39.2 °F 93% 29.33 in 6.2 mi WSW 13.8 mph - N/A Rain Light Rain
11:30 AM 41.0 °F 34.3 °F 39.2 °F 93% 29.33 in 6.2 mi SW 11.5 mph - N/A   Mostly Cloudy
12:00 PM 43 °F - 40 °F 85% 29.36 in 16 mi SW 11.2 mph - - Rain Light Rain Showers
12:00 PM 42.8 °F 36.6 °F 39.2 °F 87% 29.33 in 6.2 mi SW 11.5 mph - N/A   Mostly Cloudy
12:30 PM 42.8 °F 33.5 °F 35.6 °F 76% 29.33 in 6.2 mi WSW 23.0 mph 39.1 mph N/A   Scattered Clouds
1:00 PM 45 °F - 35 °F 58% 29.37 in 16 mi WSW 20.1 mph - - Rain Light Rain Showers
1:00 PM 44.6 °F 36.4 °F 35.6 °F 71% 29.33 in 6.2 mi WSW 20.7 mph - N/A   Scattered Clouds
1:30 PM 41.0 °F 30.7 °F 37.4 °F 87% 29.36 in 6.2 mi WSW 25.3 mph 40.3 mph N/A   Scattered Clouds
2:00 PM 44 °F - 38 °F 71% 29.37 in 25 mi WSW 17.9 mph - - Snow Light Snow Showers
2:00 PM 44.6 °F 36.9 °F 37.4 °F 76% 29.33 in 6.2 mi WSW 18.4 mph - N/A   Scattered Clouds
2:30 PM 46.4 °F 38.7 °F 33.8 °F 62% 29.33 in 6.2 mi WSW 20.7 mph 34.5 mph N/A   Scattered Clouds
3:00 PM 44 °F - 35 °F 60% 29.37 in 25 mi WSW 15.7 mph - - Hail Light Small Hail Showers
3:00 PM 44.6 °F 37.4 °F 35.6 °F 71% 29.33 in 6.2 mi WSW 16.1 mph - N/A Rain Light Rain Showers
3:30 PM 44.6 °F 35.9 °F 32.0 °F 61% 29.33 in 6.2 mi WSW 23.0 mph - N/A   Scattered Clouds
4:00 PM 41 °F - 35 °F 73% 29.39 in 16 mi WSW 24.6 mph - - Hail Light Small Hail Showers
4:00 PM 41.0 °F 30.7 °F 35.6 °F 81% 29.36 in 6.2 mi WSW 25.3 mph 41.4 mph N/A Rain Light Rain Showers
4:30 PM 39.2 °F 30.5 °F 35.6 °F 87% 29.39 in 6.2 mi WSW 16.1 mph - N/A   Scattered Clouds
5:00 PM 40 °F - 36 °F 82% 29.41 in 34 mi WSW 13.4 mph - - Hail Light Hail Showers
5:00 PM 41.0 °F 33.5 °F 35.6 °F 81% 29.39 in 6.2 mi WSW 13.8 mph - N/A   Scattered Clouds
6:00 PM 40 °F - 34 °F 72% 29.44 in 34 mi WSW 17.9 mph - - Hail Light Hail Showers
6:00 PM 41.0 °F 32.2 °F 33.8 °F 76% 29.42 in 6.2 mi WSW 18.4 mph - N/A   Scattered Clouds
6:30 PM 39.2 °F 29.0 °F 32.0 °F 75% 29.42 in 6.2 mi WSW 21.9 mph 34.5 mph N/A   Partly Cloudy
7:00 PM 39 °F - 32 °F 67% 29.46 in 37 mi WSW 15.7 mph - -   Partly Cloudy
7:00 PM 39.2 °F 30.8 °F 32.0 °F 75% 29.42 in 6.2 mi WSW 15.0 mph - N/A   Partly Cloudy
8:00 PM 37 °F - 32 °F 74% 29.48 in - WSW 15.7 mph - -  
9:00 PM 37 °F - 33 °F 79% 29.51 in - WSW 20.1 mph - -  
10:00 PM 37 °F - 32 °F 76% 29.50 in - WSW 17.9 mph - -  
11:00 PM 37 °F - 32 °F 75% 29.50 in - WSW 17.9 mph - -